(182277) = 2001 KD13

Discovered at Socorro on 2001-05-18 by LINEAR.

Orbit

Orbit type: Main Belt

Note: WebGL enabled browser required.

epoch2023-09-13.0
epoch JD2460200.5
perihelion date2022-09-22.43402
perihelion JD2459844.93402
argument of perihelion (°)74.24166
ascending node (°)185.51097
inclination (°)4.05393
eccentricity0.2273497
perihelion distance (AU)1.7971240
Tisserand w.r.t. Jupiter3.5
ΔV w.r.t. Earth (km/sec)8.4
semimajor axis (AU)2.3259214
mean anomaly (°)98.79421
mean daily motion (°/day)0.27785060
aphelion distance (AU)2.855
period (years)3.55
P-vector [x]-0.17812963
P-vector [y]-0.92771219
P-vector [z]-0.32805477
Q-vector [x]0.98398361
Q-vector [y]-0.17023513
Q-vector [z]-0.05287968
absolute magnitude17.12
phase slope0.15
uncertainty0
referenceMPEC 2023-X167
observations used580
oppositions18
arc length (days)10208
first opposition used1995
last opposition used2023
residual rms (arc-secs)0.72
perturbers coarse indicatorM-v
perturbers precise indicator003Ek
first observation date used1995-12-27.0
last observation date used2023-12-08.0
computer nameMPCLINUX
JD of orbit computation2456670.722932
perihelion JD uncertainty (days)3.2426E-05
argument of perihelion uncertainty (°)3.3849E-05
ascending node uncertainty (°)3.1749E-05
inclination uncertainty (°)3.5497E-06
eccentricity uncertainty 2.4951E-08
perihelion distance uncertainty (AU)5.6666E-08
Minimum Orbit Intersection Distances (in AU)
for orbit epoch: 2460200.5, reference: E2023-VO2
Mercury1.33568
Venus1.07388
Earth0.78651
Mars0.30195
Jupiter2.21415
Saturn6.20596
Uranus15.9765
Neptune27.0849

Observations

595 total observations over interval: 1995 12 27.14638 – 2023 12 08.262816
These data are available for download (format description).

Date (UT) J2000 RA J2000 Dec Magn Location Ref
1995 12 27.14638 03 40 14.07 +14 19 51.3 21.9 V 691 – Steward Observatory, Kitt Peak-Spacewatch MPS 79863
1995 12 27.16814 03 40 13.24 +14 19 50.3 21.8 V 691 – Steward Observatory, Kitt Peak-Spacewatch MPS 79863
1995 12 27.19032 03 40 12.52 +14 19 49.1 21.6 V 691 – Steward Observatory, Kitt Peak-Spacewatch MPS 79863
1997 03 03.30867 10 12 07.25 +07 28 29.2 20.2 V 691 – Steward Observatory, Kitt Peak-Spacewatch MPS 35800
1997 03 03.33054 10 12 05.90 +07 28 39.0 20.0 V 691 – Steward Observatory, Kitt Peak-Spacewatch MPS 35800
1997 03 03.35192 10 12 04.60 +07 28 48.5 20.2 V 691 – Steward Observatory, Kitt Peak-Spacewatch MPS 35800
1998 09 18.33616 00 51 30.60 +05 28 58.3 20.7 V 691 – Steward Observatory, Kitt Peak-Spacewatch MPS 35800
1998 09 18.35738 00 51 29.47 +05 28 48.8 20.5 V 691 – Steward Observatory, Kitt Peak-Spacewatch MPS 35800
1998 09 18.37851 00 51 28.33 +05 28 39.1 20.0 V 691 – Steward Observatory, Kitt Peak-Spacewatch MPS 35800
2001 05 18.35337 16 56 43.45 -14 52 02.8 18.8   704 – Lincoln Laboratory ETS, New Mexico MPS 30977
2001 05 18.36502 16 56 42.92 -14 51 58.7 18.3   704 – Lincoln Laboratory ETS, New Mexico MPS 30977
2001 05 18.37670 16 56 42.51 -14 51 54.1 18.6   704 – Lincoln Laboratory ETS, New Mexico MPS 30977
2001 05 21.32814 16 54 53.43 -14 37 32.7 18.3   704 – Lincoln Laboratory ETS, New Mexico MPS 30977
2001 05 21.33955 16 54 52.86 -14 37 29.7 19.0   704 – Lincoln Laboratory ETS, New Mexico MPS 30977
2001 05 21.36237 16 54 52.04 -14 37 23.5 19.3   704 – Lincoln Laboratory ETS, New Mexico MPS 30977
2001 05 25.31862 16 52 07.78 -14 19 05.5 17.8   704 – Lincoln Laboratory ETS, New Mexico MPS 31338
2001 05 25.32971 16 52 07.28 -14 19 02.4 17.9   704 – Lincoln Laboratory ETS, New Mexico MPS 31338
2001 05 25.34085 16 52 06.71 -14 18 59.7 18.4   704 – Lincoln Laboratory ETS, New Mexico MPS 31338
2001 05 25.35193 16 52 06.26 -14 18 55.9 18.9   704 – Lincoln Laboratory ETS, New Mexico MPS 31338
2001 05 25.36303 16 52 05.73 -14 18 53.2 18.2   704 – Lincoln Laboratory ETS, New Mexico MPS 31338
2001 06 15.23887 16 36 09.68 -13 14 29.0 18.4   704 – Lincoln Laboratory ETS, New Mexico MPS 31764
2001 06 15.25199 16 36 09.13 -13 14 28.1 18.8   704 – Lincoln Laboratory ETS, New Mexico MPS 31764
2001 06 15.26517 16 36 08.49 -13 14 27.1 18.7   704 – Lincoln Laboratory ETS, New Mexico MPS 31764
2001 06 15.27837 16 36 07.94 -13 14 25.5 18.5   704 – Lincoln Laboratory ETS, New Mexico MPS 31764
2004 01 30.41971 09 52 37.68 +07 54 22.7 21.1 V 691 – Steward Observatory, Kitt Peak-Spacewatch MPS 97702
2004 01 30.44723 09 52 36.21 +07 54 30.9 21.0 V 691 – Steward Observatory, Kitt Peak-Spacewatch MPS 97702
2004 01 30.47872 09 52 34.50 +07 54 40.0 21.2 V 691 – Steward Observatory, Kitt Peak-Spacewatch MPS 97702
2005 08 15.93132 00 21 55.53 +04 32 46.7 20.1 V A50 – Andrushivka Astronomical Observatory MPS 139579
2005 08 31.36346 00 13 42.61 +03 12 48.2 20.2 V 691 – Steward Observatory, Kitt Peak-Spacewatch MPS 140056
2005 08 31.38100 00 13 41.81 +03 12 40.9 20.1 V 691 – Steward Observatory, Kitt Peak-Spacewatch MPS 140056
2005 08 31.39848 00 13 41.00 +03 12 33.9 19.8 V 691 – Steward Observatory, Kitt Peak-Spacewatch MPS 140056
2005 09 06.00969 00 09 16.91 +02 32 28.4 19.4 V A50 – Andrushivka Astronomical Observatory MPS 185245
2005 09 06.01720 00 09 16.56 +02 32 24.4 19.2 V A50 – Andrushivka Astronomical Observatory MPS 185245
2005 09 21.265337 23 55 27.819 +00 28 11.70 19.62 V 645 – Apache Point-Sloan Digital Sky Survey MPS 390168
2005 09 21.268809 23 55 27.619 +00 28 09.99 20.50   645 – Apache Point-Sloan Digital Sky Survey MPS 390168
2005 09 22.271667 23 54 31.850 +00 19 46.68 19.55 V 645 – Apache Point-Sloan Digital Sky Survey MPS 390168
2005 09 22.275139 23 54 31.652 +00 19 44.90 20.47   645 – Apache Point-Sloan Digital Sky Survey MPS 390168
2005 09 23.269587 23 53 36.654 +00 11 27.56 19.88 V 645 – Apache Point-Sloan Digital Sky Survey MPS 390168
2005 09 23.273059 23 53 36.458 +00 11 25.74 20.33   645 – Apache Point-Sloan Digital Sky Survey MPS 390168
2005 09 29.18278 23 48 19.58 -00 36 43.0 19.2 R 699 – Lowell Observatory-LONEOS MPS 142499
2005 09 29.20560 23 48 18.28 -00 36 55.1   699 – Lowell Observatory-LONEOS MPS 142499
2005 09 29.22839 23 48 17.14 -00 37 04.9   699 – Lowell Observatory-LONEOS MPS 142499
2005 09 29.25119 23 48 15.82 -00 37 16.1   699 – Lowell Observatory-LONEOS MPS 142499
2005 09 29.29199 23 48 13.53 -00 37 36.1 19.4 V G96 – Mt. Lemmon Survey MPS 142499
2005 09 29.29792 23 48 13.32 -00 37 37.9 19.3 V G96 – Mt. Lemmon Survey MPS 142499
2005 09 29.30383 23 48 12.96 -00 37 40.6 19.8 V G96 – Mt. Lemmon Survey MPS 142499
2005 09 29.30975 23 48 12.63 -00 37 43.4 19.8 V G96 – Mt. Lemmon Survey MPS 142499
2005 10 13.09750 23 38 02.80 -02 14 15.6 20.7 V 691 – Steward Observatory, Kitt Peak-Spacewatch MPS 143469
2005 10 13.11302 23 38 02.25 -02 14 20.8 20.4 V 691 – Steward Observatory, Kitt Peak-Spacewatch MPS 143469
2005 10 13.12847 23 38 01.68 -02 14 26.0 20.3 V 691 – Steward Observatory, Kitt Peak-Spacewatch MPS 143469
2005 12 01.08789 23 40 58.36 -03 07 14.3 21.6 V G96 – Mt. Lemmon Survey MPS 151842
2005 12 01.09522 23 40 58.65 -03 07 11.9 21.9 V G96 – Mt. Lemmon Survey MPS 151842
2005 12 01.10257 23 40 58.90 -03 07 11.0 21.1 V G96 – Mt. Lemmon Survey MPS 151842
2005 12 01.10990 23 40 59.16 -03 07 09.8 21.4 V G96 – Mt. Lemmon Survey MPS 151842
2008 03 29.44944 15 18 32.54 -15 04 00.8 19.3 V G96 – Mt. Lemmon Survey MPS 244565
2008 03 29.45416 15 18 32.61 -15 03 59.9 19.7 V G96 – Mt. Lemmon Survey MPS 244565
2008 03 29.45888 15 18 32.65 -15 03 58.3 19.6 V G96 – Mt. Lemmon Survey MPS 244565
2008 03 29.46349 15 18 32.68 -15 03 56.7 19.4 V G96 – Mt. Lemmon Survey MPS 244565
2008 03 30.46426 15 18 44.28 -15 00 20.1 19.8 V 691 – Steward Observatory, Kitt Peak-Spacewatch MPS 244565
2008 03 30.48188 15 18 44.43 -15 00 16.1 19.4 V 691 – Steward Observatory, Kitt Peak-Spacewatch MPS 244565
2008 03 30.49951 15 18 44.56 -15 00 12.1 19.5 V 691 – Steward Observatory, Kitt Peak-Spacewatch MPS 244565
2008 04 07.36244 15 19 01.98 -14 25 49.4 19.1   704 – Lincoln Laboratory ETS, New Mexico MPS 245660
2008 04 07.37405 15 19 01.98 -14 25 45.4 19.6   704 – Lincoln Laboratory ETS, New Mexico MPS 245660
2008 04 07.40715 15 19 01.56 -14 25 36.4 19.4 V 691 – Steward Observatory, Kitt Peak-Spacewatch MPS 245660
2008 04 07.40932 15 19 01.54 -14 25 36.5 19.8   704 – Lincoln Laboratory ETS, New Mexico MPS 245660
2008 04 07.42477 15 19 01.39 -14 25 31.0 19.2 V 691 – Steward Observatory, Kitt Peak-Spacewatch MPS 245660
2008 04 07.44240 15 19 01.23 -14 25 25.8 19.5 V 691 – Steward Observatory, Kitt Peak-Spacewatch MPS 245660
2008 04 14.34776 15 17 29.27 -13 47 12.5 18.6   704 – Lincoln Laboratory ETS, New Mexico MPS 246677
2008 04 14.35889 15 17 28.99 -13 47 08.9 19.3   704 – Lincoln Laboratory ETS, New Mexico MPS 246677
2008 04 14.36994 15 17 28.72 -13 47 05.1 19.0   704 – Lincoln Laboratory ETS, New Mexico MPS 246677
2008 04 14.38099 15 17 28.45 -13 47 02.1 18.9   704 – Lincoln Laboratory ETS, New Mexico MPS 246677
2008 04 15.38038 15 17 07.31 -13 40 57.6 19.1 V 691 – Steward Observatory, Kitt Peak-Spacewatch MPS 246677
2008 04 15.39563 15 17 06.90 -13 40 52.1 19.4 V 691 – Steward Observatory, Kitt Peak-Spacewatch MPS 246677
2008 04 15.41088 15 17 06.52 -13 40 46.9 18.7 V 691 – Steward Observatory, Kitt Peak-Spacewatch MPS 246677
2008 04 29.34430 15 09 17.80 -12 06 17.1 18.5   704 – Lincoln Laboratory ETS, New Mexico MPS 248871
2008 04 29.35509 15 09 17.26 -12 06 12.7 18.9   704 – Lincoln Laboratory ETS, New Mexico MPS 248871
2008 04 29.36553 15 09 16.76 -12 06 08.2 18.8   704 – Lincoln Laboratory ETS, New Mexico MPS 248871
2008 04 29.37594 15 09 16.30 -12 06 03.2 18.7   704 – Lincoln Laboratory ETS, New Mexico MPS 248871
2008 04 29.38669 15 09 15.82 -12 05 58.6 18.7   704 – Lincoln Laboratory ETS, New Mexico MPS 248871
2008 05 05.28833 15 04 46.70 -11 23 37.3 18.2 V G96 – Mt. Lemmon Survey MPS 249747
2008 05 05.29277 15 04 46.48 -11 23 35.5 18.2 V G96 – Mt. Lemmon Survey MPS 249747
2008 05 05.29719 15 04 46.23 -11 23 33.9 18.2 V G96 – Mt. Lemmon Survey MPS 249747
2008 05 05.30162 15 04 46.02 -11 23 31.9 18.5 V G96 – Mt. Lemmon Survey MPS 249747
